Home > Weather > Irvine > Past weeks

Flag for USA Past Weather in Irvine, California, USA — Yesterday and Last 2 Weeks

Now
65 °F

Scattered clouds.


Feels Like: 65 °F
Forecast: 61 / 72 °F
Wind: 7 mph from Southwest

Location: John Wayne Airport-Orange County Airport

Current Time: May 29, 2016 at 8:01:04 PM

Latest Report: May 29, 2016 at 6:53 PM


Visibility: 10 mi

Pressure: 29.97 "Hg

Humidity: 68%

Dew Point: 54 °F

Location of IrvineLocation

Past Weather in Irvine — Graph

°F

Irvine Temperature Yesterday

Maximum temperature yesterday: 70 °F (at 1:53 PM)
Minimum temperature yesterday: 61 °F (at 1:53 AM)
Average temperature yesterday: 63 °F

High & Low Weather Summary for the Past Weeks

 TemperatureHumidityPressure
High70 °F (May 15, 12:53 PM)87% (May 19, 1:53 AM)30.10 "Hg (May 19, 1:53 AM)
Low56 °F (May 22, 4:53 AM)35% (May 25, 2:53 PM)29.83 "Hg (May 20, 4:53 AM)
Average63 °F69%29.95 "Hg
* Reported May 14 6:53 PM — May 29 6:53 PM, Irvine, Weather by CustomWeather, © 2016

Note: Actual official high and low records may vary slightly from our data, if they occured in-between our weather recording intervals... More about our weather records

Advertising

Irvine Weather History for the Previous 24 Hours

Scroll right to see more
 ConditionsComfort  
Time TempWeatherWind HumidityBarometerVisibility
6:53 PM
Sun, May 29
65 °FScattered clouds.7 mph68%29.97 "Hg10 mi
5:53 PM67 °FScattered clouds.8 mph61%29.96 "Hg10 mi
4:53 PM68 °FScattered clouds.8 mph61%29.96 "Hg10 mi
3:53 PM69 °FScattered clouds.12 mph59%29.96 "Hg10 mi
2:53 PM68 °FBroken clouds.7 mph61%29.98 "Hg10 mi
1:53 PM67 °FPartly sunny.8 mph63%30.00 "Hg10 mi
12:53 PM67 °FBroken clouds.5 mph63%30.01 "Hg10 mi
11:53 AM66 °FPartly sunny.7 mph65%30.01 "Hg10 mi
10:53 AM64 °FOvercast.5 mph70%30.02 "Hg10 mi
9:53 AM63 °FOvercast.No wind73%30.01 "Hg10 mi
8:53 AM62 °FOvercast.No wind75%30.01 "Hg10 mi
7:53 AM62 °FOvercast.No wind73%30.00 "Hg10 mi
6:53 AM62 °FOvercast.3 mph75%29.99 "Hg10 mi
5:53 AM62 °FOvercast.3 mph75%29.97 "Hg10 mi
4:53 AM62 °FOvercast.No wind73%29.96 "Hg10 mi
3:53 AM62 °FOvercast.No wind73%29.96 "Hg10 mi
2:53 AM61 °FOvercast.3 mph78%29.95 "Hg10 mi
1:53 AM62 °FOvercast.3 mph75%29.95 "Hg10 mi
12:53 AM62 °FOvercast.3 mph75%29.96 "Hg10 mi
11:53 PM
Sat, May 28
62 °FOvercast.7 mph75%29.97 "Hg10 mi
10:53 PM62 °FOvercast.7 mph75%29.96 "Hg10 mi
9:53 PM62 °FOvercast.6 mph75%29.96 "Hg10 mi
8:53 PM62 °FOvercast.6 mph75%29.94 "Hg10 mi
Weather by CustomWeather, © 2016

See weather overviewHow to use our weather pages